Location: Bazugues
(43.4465°N, 0.3432°E)
Time: 15:13:53
(UTC+00:00)

UNK - Visible Passes

Search period start: 11 April 2026 00:00
Search period end: 21 April 2026 00:00
Orbit: 654 x 672 km, 98.4° (Epoch: 11 April)

Date Brightness Start Highest point End Pass type
(mag) Time Alt. Az. Time Alt. Az. Time Alt. Az.
11 Apr 4.2 04:21:09 10° SSE 04:25:43 67° ENE 04:30:18 10° N visible
12 Apr 6.8 03:16:58 10° E 03:19:46 16° ENE 03:22:34 10° NNE visible
12 Apr 3.8 04:51:40 10° S 04:56:12 60° W 05:00:46 10° NNW visible
13 Apr 5.8 03:45:59 10° SE 03:49:57 30° ENE 03:53:56 10° N visible
14 Apr 4.4 04:15:46 10° SSE 04:20:17 58° ENE 04:24:48 10° N visible
15 Apr 6.9 03:11:58 10° E 03:14:22 14° ENE 03:16:48 10° NNE visible
15 Apr 3.7 04:46:09 10° S 04:50:44 69° WSW 04:55:19 10° NNW visible
16 Apr 6.1 03:40:44 10° ESE 03:44:32 26° ENE 03:48:21 10° N visible
17 Apr 4.8 04:10:24 10° SSE 04:14:50 51° ENE 04:19:17 10° N visible
17 Apr 7.5 19:19:09 10° NW 19:20:12 11° WNW 19:21:15 10° WNW visible
18 Apr 7.1 03:07:03 10° E 03:08:59 13° ENE 03:10:55 10° NE visible
18 Apr 3.7 04:40:40 10° S 04:45:15 80° WSW 04:49:53 10° NNW visible
19 Apr 6.3 03:35:32 10° ESE 03:39:07 23° ENE 03:42:44 10° NNE visible
20 Apr 5.1 04:05:03 10° SE 04:09:23 44° ENE 04:13:45 10° N visible
20 Apr 7.3 19:13:01 10° NW 19:14:48 12° WNW 19:16:36 10° W visible
